Curtin, Australia

8:05 PM AWST on March 25, 2017 (GMT +0800)
Curtin

Weather History for YCIN - August, 2013

Change the Weather History Date:

Monday, August 26, 2013

  Actual Average Record
Temperature  
Mean Temperature 78 °F -  
Max Temperature 94 °F - - ()
Min Temperature 63 °F - - ()
Cooling Degree Days 14    
Growing Degree Days 28 (Base 50)    
Moisture  
Dew Point 48 °F    
Average Humidity 39    
Maximum Humidity 73    
Minimum Humidity 12    
Precipitation  
Precipitation 0.00 in - - ()
Sea Level Pressure  
Sea Level Pressure 29.97 in    
Wind  
Wind Speed 6 mph ()    
Max Wind Speed 10 mph    
Max Gust Speed -    
T = Trace of Precipitation, MM = Missing Value Source: Averaged Metar Reports

Daily Weather History Graph

Daily Weather History Graph

Search for Another Location

Airport or City:

Trip Planner

Search our weather history database for the weather conditions in past years. The results will help you decide how hot, cold, wet, or windy it might be!

Date:

Astronomy

Aug. 26, 2013 Rise Set
Actual Time 5:56 AM AWST 5:36 PM AWST
Civil Twilight 5:34 AM AWST 5:58 PM AWST
Nautical Twilight 5:09 AM AWST 6:24 PM AWST
Astronomical Twilight 4:43 AM AWST 6:49 PM AWST
Moon 10:28 PM AWST (8/26) 9:24 AM AWST (8/26)
Length of Visible Light 12h 24m
Length of Day
11h 40m
Waning Gibbous, 71% of the Moon is Illuminated
Aug 26
Waning Gibbous
Aug 28
Last Quarter
Sep 5
New
Sep 13
First Quarter
Sep 19
Full

Hourly Weather History & Observations

Time (AWST) Temp. Dew Point Humidity Pressure Visibility Wind Dir Wind Speed Gust Speed Precip Events Conditions
12:00 AM 69 °F 50 °F 41% 30.00 in - SSE 8.1 mph - -  
12:00 AM 69.8 °F 50.0 °F 49% 30.01 in - SSE 8.1 mph - N/A   Unknown
1:00 AM 68.0 °F 50.0 °F 52% 29.98 in - South 8.1 mph - N/A   Unknown
2:00 AM 64.4 °F 50.0 °F 59% 29.95 in - South 4.6 mph - N/A   Unknown
3:00 AM 66 °F 52 °F 50% 29.95 in - South 8.1 mph - -  
3:00 AM 66.2 °F 51.8 °F 60% 29.95 in - South 8.1 mph - N/A   Unknown
4:00 AM 66.2 °F 51.8 °F 60% 29.95 in - SSE 6.9 mph - N/A   Unknown
5:00 AM 66.2 °F 53.6 °F 64% 29.95 in - South 10.4 mph - N/A   Unknown
6:00 AM 65 °F 55 °F 63% 29.98 in - South 4.6 mph - -  
6:00 AM 64.4 °F 55.4 °F 73% 29.98 in - South 4.6 mph - N/A   Unknown
7:00 AM 69.8 °F 55.4 °F 60% 30.01 in - NE 5.8 mph - N/A   Unknown
8:00 AM 75.2 °F 53.6 °F 47% 30.04 in - NE 8.1 mph - N/A   Unknown
9:00 AM 81 °F 52 °F 26% 30.05 in - NNE 4.6 mph - -  
9:00 AM 80.6 °F 51.8 °F 37% 30.04 in - NNE 4.6 mph - N/A   Unknown
10:00 AM 86.0 °F 50.0 °F 29% 30.04 in - North 6.9 mph - N/A   Unknown
11:00 AM 89.6 °F 41.0 °F 18% 30.01 in - NE 8.1 mph - N/A   Unknown
12:00 PM 91.4 °F 39.2 °F 16% 29.98 in - East 8.1 mph - N/A   Unknown
1:00 PM 91.4 °F 37.4 °F 15% 29.95 in - NE 6.9 mph - N/A   Unknown
2:00 PM 95.0 °F 35.6 °F 12% 29.92 in - WNW 6.9 mph - N/A   Unknown
3:00 PM 90 °F 48 °F 14% 29.90 in - NW 9.2 mph - -  
3:00 PM 91.4 °F 48.2 °F 23% 29.89 in - NW 9.2 mph - N/A   Unknown
4:00 PM 89.6 °F 42.8 °F 20% 29.89 in - WNW 9.2 mph - N/A   Unknown
5:00 PM 87.8 °F 41.0 °F 19% 29.89 in - WNW 9.2 mph - N/A   Unknown
6:00 PM 82 °F 41 °F 14% 29.92 in - NW 5.8 mph - -  
6:00 PM 82.4 °F 41.0 °F 23% 29.92 in - NW 5.8 mph - N/A   Unknown
6:52 PM 73.4 °F 41.0 °F 31% 29.95 in - NNW 4.6 mph - N/A   Unknown
7:00 PM 71.6 °F 41.0 °F 33% 29.95 in - NW 4.6 mph - N/A   Unknown
8:00 PM 68.0 °F 42.8 °F 40% 29.95 in - WNW 4.6 mph - N/A   Unknown
9:00 PM 69 °F 47 °F 34% 29.97 in - WSW 4.6 mph - -  
9:00 PM 69.8 °F 46.4 °F 43% 29.98 in - WSW 4.6 mph - N/A   Unknown
10:00 PM 69.8 °F 55.4 °F 60% 29.98 in - WSW 8.1 mph - N/A   Unknown
11:00 PM 68.0 °F 59.0 °F 73% 29.98 in - SW 6.9 mph - N/A   Unknown